• In Deutschland
  • Länderverzeichnis
  • Für 7 Tage
  • Wassertemperatur
  • Satellitenkarten
  • Wetterkarte
  • Widgets
  • user-avatar
    Anmelden

    Stündliche Wetter Sankt Ingbert

    Heute, 19 Juni, Dienstag

    Zeit Temperatur Niederschläge Wind Luftdruck Luftfeuchtigkeit
    00:00 +16°C° 0 mm 2 m/S 746 mmHg 97%
    01:00 +16°C° 0 mm 2 m/S 746 mmHg 96%
    02:00 +16°C° 0 mm 1 m/S 746 mmHg 96%
    03:00 +15°C° 0 mm 1 m/S 746 mmHg 96%
    04:00 +16°C° 0 mm 2 m/S 746 mmHg 95%
    05:00 +17°C° 0 mm 2 m/S 746 mmHg 93%
    06:00 +18°C° 0 mm 2 m/S 747 mmHg 91%
    07:00 +19°C° 0 mm 2 m/S 747 mmHg 85%
    08:00 +20°C° 0 mm 2 m/S 747 mmHg 80%
    09:00 +23°C° 0 mm 2 m/S 747 mmHg 74%
    10:00 +23°C° 0 mm 2 m/S 747 mmHg 74%
    11:00 +24°C° 0 mm 2 m/S 747 mmHg 73%
    12:00 +24°C° 0 mm 2 m/S 747 mmHg 72%
    13:00 +24°C° 0 mm 2 m/S 747 mmHg 72%
    14:00 +24°C° 0 mm 2 m/S 747 mmHg 73%
    15:00 +24°C° 0 mm 2 m/S 747 mmHg 73%
    16:00 +24°C° 0 mm 2 m/S 747 mmHg 76%
    17:00 +24°C° 0 mm 2 m/S 746 mmHg 79%
    18:00 +23°C° 0 mm 2 m/S 746 mmHg 82%
    19:00 +21°C° 0 mm 2 m/S 746 mmHg 86%
    20:00 +20°C° 0 mm 1 m/S 746 mmHg 90%
    21:00 +18°C° 0 mm 1 m/S 746 mmHg 94%
    22:00 +18°C° 0 mm 1 m/S 746 mmHg 94%
    23:00 +18°C° 0 mm 1 m/S 746 mmHg 95%

    Morgen, 20 Juni, Mittwoch

    Zeit Temperatur Niederschläge Wind Luftdruck Luftfeuchtigkeit
    00:00 +16°C° 0 mm 1 m/S 746 mmHg 95%
    01:00 +16°C° 0 mm 1 m/S 746 mmHg 96%
    02:00 +16°C° 0 mm 1 m/S 746 mmHg 96%
    03:00 +15°C° 0 mm 1 m/S 746 mmHg 96%
    04:00 +18°C° 0 mm 1 m/S 746 mmHg 94%
    05:00 +19°C° 0 mm 1 m/S 746 mmHg 92%
    06:00 +20°C° 0 mm 1 m/S 746 mmHg 90%
    07:00 +22°C° 0 mm 1 m/S 746 mmHg 83%
    08:00 +23°C° 0 mm 1 m/S 746 mmHg 77%
    09:00 +25°C° 0 mm 1 m/S 746 mmHg 70%
    10:00 +26°C° 0 mm 1 m/S 745 mmHg 66%
    11:00 +28°C° 0 mm 1 m/S 745 mmHg 62%
    12:00 +29°C° 0 mm 1 m/S 745 mmHg 58%
    13:00 +29°C° 0 mm 1 m/S 744 mmHg 57%
    14:00 +29°C° 0 mm 1 m/S 744 mmHg 56%
    15:00 +29°C° 0 mm 1 m/S 744 mmHg 55%
    16:00 +28°C° 0 mm 1 m/S 743 mmHg 61%
    17:00 +27°C° 0 mm 1 m/S 743 mmHg 66%
    18:00 +27°C° 0 mm 1 m/S 743 mmHg 72%
    19:00 +25°C° 0 mm 1 m/S 743 mmHg 76%
    20:00 +23°C° 0 mm 1 m/S 743 mmHg 80%
    21:00 +21°C° 0 mm 1 m/S 743 mmHg 83%
    22:00 +20°C° 0 mm 1 m/S 743 mmHg 85%
    23:00 +20°C° 0 mm 1 m/S 743 mmHg 87%

    übermorgen, 21 Juni, Donnerstag

    Zeit Temperatur Niederschläge Wind Luftdruck Luftfeuchtigkeit
    00:00 +19°C° 0 mm 1 m/S 742 mmHg 89%
    01:00 +19°C° 0 mm 1 m/S 742 mmHg 90%
    02:00 +18°C° 0 mm 1 m/S 742 mmHg 91%
    03:00 +18°C° 0 mm 1 m/S 742 mmHg 92%
    04:00 +19°C° 0 mm 1 m/S 742 mmHg 91%
    05:00 +19°C° 0 mm 2 m/S 742 mmHg 89%
    06:00 +20°C° 0 mm 2 m/S 741 mmHg 88%
    07:00 +21°C° 0 mm 3 m/S 742 mmHg 82%
    08:00 +22°C° 0 mm 3 m/S 742 mmHg 77%
    09:00 +23°C° 0 mm 4 m/S 742 mmHg 71%
    10:00 +23°C° 0 mm 5 m/S 742 mmHg 71%
    11:00 +23°C° 0 mm 5 m/S 742 mmHg 70%
    12:00 +23°C° 0 mm 6 m/S 742 mmHg 69%
    13:00 +22°C° 0 mm 6 m/S 742 mmHg 68%
    14:00 +21°C° 0 mm 6 m/S 742 mmHg 67%
    15:00 +20°C° 0 mm 5 m/S 742 mmHg 65%
    16:00 +19°C° 0 mm 5 m/S 743 mmHg 66%
    17:00 +18°C° 0 mm 4 m/S 743 mmHg 67%
    18:00 +17°C° 0 mm 4 m/S 743 mmHg 67%
    19:00 +14°C° 0 mm 4 m/S 744 mmHg 68%
    20:00 +12°C° 0 mm 3 m/S 744 mmHg 69%
    21:00 +11°C° 0 mm 3 m/S 745 mmHg 70%
    22:00 +9°C° 0 mm 3 m/S 745 mmHg 75%
    23:00 +8°C° 0 mm 2 m/S 745 mmHg 80%

    22 Juni, Freitag

    Zeit Temperatur Niederschläge Wind Luftdruck Luftfeuchtigkeit
    00:00 +7°C° 0 mm 2 m/S 746 mmHg 84%
    01:00 +7°C° 0 mm 2 m/S 746 mmHg 87%
    02:00 +6°C° 0 mm 2 m/S 746 mmHg 90%
    03:00 +6°C° 0 mm 2 m/S 746 mmHg 93%
    04:00 +7°C° 0 mm 2 m/S 746 mmHg 87%
    05:00 +8°C° 0 mm 2 m/S 747 mmHg 82%
    06:00 +10°C° 0 mm 3 m/S 747 mmHg 76%
    07:00 +11°C° 0 mm 3 m/S 747 mmHg 71%
    08:00 +12°C° 0 mm 3 m/S 747 mmHg 66%
    09:00 +14°C° 0 mm 4 m/S 747 mmHg 61%
    10:00 +14°C° 0,1 mm 4 m/S 747 mmHg 60%
    11:00 +15°C° 0,1 mm 4 m/S 747 mmHg 58%
    12:00 +17°C° 0,1 mm 4 m/S 746 mmHg 57%
    13:00 +17°C° 0,1 mm 4 m/S 746 mmHg 58%
    14:00 +17°C° 0,1 mm 4 m/S 746 mmHg 58%
    15:00 +17°C° 0,1 mm 4 m/S 746 mmHg 59%
    16:00 +17°C° 0,1 mm 3 m/S 746 mmHg 64%
    17:00 +16°C° 0,1 mm 3 m/S 746 mmHg 69%
    18:00 +14°C° 0,1 mm 3 m/S 746 mmHg 74%
    19:00 +14°C° 0 mm 2 m/S 746 mmHg 79%
    20:00 +12°C° 0 mm 2 m/S 746 mmHg 83%
    21:00 +10°C° 0 mm 2 m/S 747 mmHg 88%
    22:00 +9°C° 0 mm 2 m/S 747 mmHg 90%
    23:00 +8°C° 0 mm 2 m/S 747 mmHg 92%

    23 Juni, Samstag

    Zeit Temperatur Niederschläge Wind Luftdruck Luftfeuchtigkeit
    00:00 +8°C° 0 mm 2 m/S 747 mmHg 94%
    01:00 +8°C° 0 mm 1 m/S 747 mmHg 95%
    02:00 +8°C° 0 mm 1 m/S 747 mmHg 95%
    03:00 +8°C° 0 mm 1 m/S 747 mmHg 96%
    04:00 +8°C° 0 mm 2 m/S 747 mmHg 92%
    05:00 +9°C° 0 mm 2 m/S 747 mmHg 88%
    06:00 +10°C° 0 mm 2 m/S 747 mmHg 84%
    07:00 +13°C° 0 mm 2 m/S 747 mmHg 77%
    08:00 +14°C° 0 mm 2 m/S 747 mmHg 70%
    09:00 +15°C° 0 mm 2 m/S 747 mmHg 63%
    10:00 +16°C° 0 mm 3 m/S 747 mmHg 60%
    11:00 +18°C° 0 mm 3 m/S 747 mmHg 57%
    12:00 +19°C° 0 mm 3 m/S 747 mmHg 54%
    13:00 +19°C° 0 mm 3 m/S 747 mmHg 55%
    14:00 +19°C° 0 mm 3 m/S 746 mmHg 55%
    15:00 +20°C° 0 mm 3 m/S 746 mmHg 56%
    16:00 +19°C° 0 mm 3 m/S 746 mmHg 61%
    17:00 +18°C° 0 mm 3 m/S 746 mmHg 66%
    18:00 +17°C° 0 mm 2 m/S 746 mmHg 71%
    19:00 +15°C° 0 mm 2 m/S 746 mmHg 76%
    20:00 +13°C° 0 mm 2 m/S 746 mmHg 81%
    21:00 +10°C° 0 mm 2 m/S 746 mmHg 86%
    22:00 +10°C° 0 mm 2 m/S 746 mmHg 87%
    23:00 +9°C° 0 mm 2 m/S 746 mmHg 88%

    24 Juni, Sonntag

    Zeit Temperatur Niederschläge Wind Luftdruck Luftfeuchtigkeit
    00:00 +8°C° 0 mm 2 m/S 746 mmHg 89%
    01:00 +8°C° 0 mm 2 m/S 746 mmHg 90%
    02:00 +8°C° 0 mm 2 m/S 746 mmHg 91%
    03:00 +7°C° 0 mm 2 m/S 746 mmHg 92%
    04:00 +9°C° 0 mm 2 m/S 746 mmHg 88%
    05:00 +10°C° 0 mm 2 m/S 746 mmHg 84%
    06:00 +13°C° 0 mm 2 m/S 746 mmHg 80%
    07:00 +14°C° 0 mm 2 m/S 746 mmHg 74%
    08:00 +16°C° 0 mm 2 m/S 746 mmHg 68%
    09:00 +18°C° 0 mm 3 m/S 746 mmHg 62%
    10:00 +19°C° 0 mm 3 m/S 746 mmHg 60%
    11:00 +19°C° 0 mm 3 m/S 745 mmHg 57%
    12:00 +20°C° 0 mm 3 m/S 745 mmHg 54%
    13:00 +21°C° 0 mm 3 m/S 745 mmHg 55%
    14:00 +21°C° 0 mm 3 m/S 745 mmHg 55%
    15:00 +21°C° 0 mm 3 m/S 744 mmHg 55%
    16:00 +20°C° 0 mm 3 m/S 744 mmHg 60%
    17:00 +20°C° 0 mm 3 m/S 744 mmHg 64%
    18:00 +19°C° 0 mm 2 m/S 744 mmHg 69%
    19:00 +17°C° 0 mm 2 m/S 744 mmHg 72%
    20:00 +15°C° 0 mm 2 m/S 745 mmHg 74%
    21:00 +13°C° 0 mm 2 m/S 745 mmHg 77%
    22:00 +13°C° 0 mm 2 m/S 745 mmHg 80%
    23:00 +12°C° 0 mm 2 m/S 745 mmHg 82%
    Mehr zeigen